TimeEST,TemperatureF,Dew PointF,Humidity,Sea Level PressureIn,VisibilityMPH,Wind Direction,Wind SpeedMPH,Gust SpeedMPH,PrecipitationIn,Events,Conditions,WindDirDegrees,DateUTC
12:11 AM,37.4,35.6,93,29.54,10.0,Calm,Calm,-,N/A,,Overcast,0,2012-12-11 05:11:00
12:51 AM,37.9,36.0,93,29.55,10.0,NW,3.5,-,N/A,,Overcast,310,2012-12-11 05:51:00
1:51 AM,37.9,37.0,97,29.58,10.0,Calm,Calm,-,N/A,,Mostly Cloudy,0,2012-12-11 06:51:00
1:59 AM,37.4,37.4,100,29.59,10.0,Calm,Calm,-,N/A,,Overcast,0,2012-12-11 06:59:00
2:51 AM,37.9,37.0,97,29.60,10.0,WSW,3.5,-,N/A,,Overcast,240,2012-12-11 07:51:00
3:51 AM,39.0,36.0,89,29.62,10.0,Calm,Calm,-,0.00,Rain,Light Rain,0,2012-12-11 08:51:00
4:51 AM,39.0,37.9,96,29.63,10.0,Calm,Calm,-,0.00,,Overcast,0,2012-12-11 09:51:00
5:51 AM,39.0,37.0,93,29.68,10.0,Calm,Calm,-,0.00,Rain,Light Rain,0,2012-12-11 10:51:00
6:51 AM,39.0,37.0,93,29.70,9.0,Calm,Calm,-,0.00,,Overcast,0,2012-12-11 11:51:00
7:51 AM,39.9,37.9,93,29.71,10.0,Calm,Calm,-,N/A,,Mostly Cloudy,0,2012-12-11 12:51:00
8:51 AM,41.0,37.9,89,29.75,10.0,WNW,6.9,-,N/A,,Overcast,290,2012-12-11 13:51:00
9:51 AM,41.0,37.9,89,29.80,10.0,WNW,6.9,-,N/A,,Overcast,300,2012-12-11 14:51:00
10:51 AM,43.0,36.0,76,29.82,10.0,NNW,6.9,-,N/A,,Mostly Cloudy,340,2012-12-11 15:51:00
11:51 AM,43.0,34.0,71,29.83,10.0,WNW,11.5,-,N/A,,Mostly Cloudy,290,2012-12-11 16:51:00
12:51 PM,43.0,32.0,65,29.83,10.0,NW,9.2,-,N/A,,Mostly Cloudy,320,2012-12-11 17:51:00
1:51 PM,44.1,30.9,60,29.86,10.0,West,9.2,-,N/A,,Scattered Clouds,280,2012-12-11 18:51:00
2:51 PM,43.0,28.9,58,29.88,10.0,NW,12.7,-,N/A,,Scattered Clouds,310,2012-12-11 19:51:00
3:51 PM,39.9,26.1,58,29.93,10.0,West,8.1,-,N/A,,Partly Cloudy,270,2012-12-11 20:51:00
4:51 PM,37.0,25.0,62,29.96,10.0,West,5.8,-,N/A,,Scattered Clouds,270,2012-12-11 21:51:00
5:51 PM,34.0,25.0,70,30.00,10.0,WNW,5.8,-,N/A,,Scattered Clouds,290,2012-12-11 22:51:00
6:51 PM,32.0,23.0,69,30.03,10.0,Calm,Calm,-,N/A,,Clear,0,2012-12-11 23:51:00
7:51 PM,28.9,23.0,78,30.05,10.0,Calm,Calm,-,N/A,,Clear,0,2012-12-12 00:51:00
8:51 PM,30.0,23.0,75,30.07,10.0,Calm,Calm,-,N/A,,Clear,0,2012-12-12 01:51:00
9:51 PM,28.0,21.9,78,30.10,10.0,Calm,Calm,-,N/A,,Clear,0,2012-12-12 02:51:00
10:51 PM,26.6,21.2,80,30.11,10.0,Calm,Calm,-,N/A,,Clear,0,2012-12-12 03:51:00
11:51 PM,27.0,21.0,78,30.13,10.0,Calm,Calm,-,N/A,,Clear,0,2012-12-12 04:51:00